Home   Weather   Beirut   Past weeks

Flag for Lebanon Past Weather in Beirut, Lebanon — Yesterday and Last 2 Weeks

Now
66 °F

Scattered clouds.


Feels Like: 66 °F
Forecast: 58 / 65 °F
Wind: 13 mph from West

Location: Beirut Airport

Current Time: Apr 23, 2017 at 5:02:56 pm

Latest Report: Apr 23, 2017 at 4:00 pm


Visibility: 5 mi

Pressure: 30.04 "Hg

Humidity: 52%

Dew Point: 48 °F

Location of BeirutLocation

Past Weather in Beirut — Graph

°F

Beirut Temperature Yesterday

Maximum temperature yesterday: 93 °F (at 4:00 pm)
Minimum temperature yesterday: 70 °F (at 7:00 am)
Average temperature yesterday: 79 °F

High & Low Weather Summary for the Past Weeks

 TemperatureHumidityPressure
High93 °F (Apr 22, 4:00 pm)88% (Apr 13, 9:00 am)30.18 "Hg (Apr 13, 9:00 am)
Low57 °F (Apr 10, 6:00 am)15% (Apr 22, 5:00 pm)29.68 "Hg (Apr 13, 2:00 am)
Average68 °F61%29.99 "Hg
* Reported Apr 8 3:00 pm — Apr 23 3:00 pm, Beirut, Weather by CustomWeather, © 2017

Note: Actual official high and low records may vary slightly from our data, if they occured in-between our weather recording intervals... More about our weather records

Advertising

Beirut Weather History for the Previous 24 Hours

Scroll right to see more
 ConditionsComfort  
Time TempWeatherWind HumidityBarometerVisibility
3:00 pm
Sun, Apr 23
66 °FPartly sunny.13 mph56%30.04 "Hg5 mi
2:00 pm68 °FPartly sunny.13 mph53%30.04 "Hg5 mi
1:00 pm68 °FPartly sunny.14 mph56%30.04 "Hg4 mi
12:00 pm66 °FPartly sunny.14 mph60%30.04 "Hg4 mi
11:00 am66 °FPartly sunny.13 mph68%30.04 "Hg4 mi
10:00 am66 °FPartly sunny.14 mph64%30.01 "Hg4 mi
9:00 am68 °FFog.16 mph69%29.98 "Hg3 mi
8:00 am68 °FFog.14 mph73%29.95 "Hg3 mi
7:00 am66 °FFog.14 mph88%29.86 "Hg3 mi
6:00 am66 °FFog.12 mph88%29.86 "Hg3 mi
5:00 am66 °FClear.14 mph88%29.83 "Hg10 mi
4:00 am70 °FClear.7 mph69%29.77 "Hg10 mi
3:00 am70 °FClear.8 mph73%29.77 "Hg5 mi
2:00 am72 °FClear.12 mph73%29.74 "Hg5 mi
1:00 am72 °FClear.8 mph69%29.68 "Hg5 mi
12:00 am72 °FClear.3 mph69%29.68 "Hg5 mi
11:00 pm
Sat, Apr 22
72 °FClear.5 mph73%29.68 "Hg5 mi
10:00 pm73 °FClear.3 mph69%29.68 "Hg5 mi
9:00 pm73 °FPassing clouds.2 mph69%29.68 "Hg5 mi
8:00 pm75 °FPassing clouds.6 mph57%29.68 "Hg5 mi
7:00 pm84 °FPassing clouds.5 mph27%29.68 "Hg5 mi
6:00 pm86 °FScattered clouds.8 mph24%29.68 "Hg4 mi
5:00 pm91 °FScattered clouds.9 mph15%29.71 "Hg4 mi
Weather by CustomWeather, © 2017

See weather overviewHow to use our weather pages